TimeCDT,TemperatureF,Dew PointF,Humidity,Sea Level PressureIn,VisibilityMPH,Wind Direction,Wind SpeedMPH,Gust SpeedMPH,PrecipitationIn,Events,Conditions,WindDirDegrees,DateUTC
12:53 AM,64.9,41.0,42,29.83,10.0,SE,11.5,-,N/A,,Clear,140,2011-10-14 05:53:00
1:53 AM,63.0,42.1,46,29.83,10.0,SE,9.2,-,N/A,,Clear,140,2011-10-14 06:53:00
2:53 AM,60.1,42.1,51,29.83,10.0,SE,8.1,-,N/A,,Clear,130,2011-10-14 07:53:00
3:53 AM,57.9,43.0,58,29.82,10.0,SE,6.9,-,N/A,,Clear,130,2011-10-14 08:53:00
4:53 AM,57.0,43.0,59,29.80,10.0,SE,8.1,-,N/A,,Clear,130,2011-10-14 09:53:00
5:53 AM,55.9,44.1,64,29.82,10.0,ESE,5.8,-,N/A,,Clear,120,2011-10-14 10:53:00
6:53 AM,54.0,44.1,69,29.83,10.0,ESE,4.6,-,N/A,,Clear,120,2011-10-14 11:53:00
7:53 AM,50.0,42.1,74,29.86,10.0,Calm,Calm,-,N/A,,Clear,0,2011-10-14 12:53:00
8:53 AM,57.2,46.4,67,29.96,10.0,Calm,Calm,-,N/A,,Clear,0,2011-10-14 13:53:00
9:53 AM,66.0,48.0,52,29.88,10.0,SSE,5.8,-,N/A,,Clear,160,2011-10-14 14:53:00
10:53 AM,73.0,43.0,34,29.88,10.0,South,4.6,-,N/A,,Clear,180,2011-10-14 15:53:00
11:53 AM,80.1,36.0,20,29.87,10.0,Variable,5.8,-,N/A,,Clear,0,2011-10-14 16:53:00
12:53 PM,84.0,33.1,16,29.84,10.0,Calm,Calm,-,N/A,,Clear,0,2011-10-14 17:53:00
1:53 PM,87.8,30.2,13,29.94,10.0,WSW,3.5,-,N/A,,Clear,250,2011-10-14 18:53:00
2:53 PM,91.9,27.0,10,29.78,10.0,North,8.1,-,N/A,,Clear,360,2011-10-14 19:53:00
3:53 PM,91.0,26.1,10,29.76,10.0,Calm,Calm,-,N/A,,Clear,0,2011-10-14 20:53:00
4:53 PM,91.0,25.0,9,29.75,10.0,Calm,Calm,-,N/A,,Clear,0,2011-10-14 21:53:00
5:53 PM,91.9,24.1,9,29.75,10.0,SSW,3.5,-,N/A,,Clear,200,2011-10-14 22:53:00
6:53 PM,90.0,24.1,9,29.76,10.0,SE,3.5,-,N/A,,Clear,130,2011-10-14 23:53:00
7:53 PM,80.1,27.0,14,29.80,10.0,SE,6.9,-,N/A,,Clear,130,2011-10-15 00:53:00
8:53 PM,77.0,35.1,22,29.81,10.0,SE,9.2,-,N/A,,Clear,140,2011-10-15 01:53:00
9:53 PM,73.0,39.0,29,29.82,10.0,SE,9.2,-,N/A,,Clear,130,2011-10-15 02:53:00
10:53 PM,72.0,43.0,35,29.83,10.0,SE,10.4,-,N/A,,Clear,130,2011-10-15 03:53:00
11:53 PM,69.8,46.4,43,29.96,10.0,SE,10.4,-,N/A,,Clear,140,2011-10-15 04:53:00